Startpagina
METAR-TAF:

METAR-TAF

Vliegvelden :

Goeree Le, Nederland

Productieplatform

breedte: 51-55-33N, lengte: 3-40-12E, hoogte: 19 m

Actueel weer

Dit bericht is 57 minuten geleden gemaakt, om 05:55 UTC
Wind 21 kt uit het noordnoordwesten met uitschieters tot 24 kt
Temperatuur 17°C
Vochtigheid 82%
Druk 1012 hPa
Zicht 10 km of meer

METAR: EHSC 250555Z AUTO 34021G24KT 9999 ///////// 17/14 Q1012 W20/H11

Tijdstip: 08:52 (06:52 UTC)


TAF: ontbreekt

Waarnemingen en weersverwachtingen van meer dan 4000 vliegvelden (METAR en TAF).

De beschikbare stations zijn de gele en rode punten op de kaart.

Ga met uw muis naar het station om de naam te zien.

Klik dan om waarnemingen en weersverwachtingen te zien.

kaart wijzigen: klik op de groene knoppen met een zwart kruis om in te zoomen, op de groene knop met een streepje om uit te zoomen of op de groene pijlen voor aangrenzende kaarten.


METAR-TAF: